TimeCST,TemperatureF,Dew PointF,Humidity,Sea Level PressureIn,VisibilityMPH,Wind Direction,Wind SpeedMPH,Gust SpeedMPH,PrecipitationIn,Events,Conditions,WindDirDegrees,DateUTC
12:15 AM,49.3,29.8,47,30.03,10.0,SSW,5.8,-,N/A,,Clear,200,2014-01-12 06:15:00
12:35 AM,46.9,30.0,52,30.02,10.0,SSE,3.5,-,N/A,,Clear,160,2014-01-12 06:35:00
12:55 AM,46.9,29.8,51,30.02,10.0,Calm,Calm,-,N/A,,Clear,0,2014-01-12 06:55:00
1:15 AM,44.6,30.6,58,30.02,10.0,SSE,4.6,-,N/A,,Clear,160,2014-01-12 07:15:00
1:35 AM,44.4,31.1,60,30.02,10.0,South,5.8,-,N/A,,Clear,170,2014-01-12 07:35:00
1:55 AM,44.6,31.6,60,30.01,10.0,SSE,3.5,-,N/A,,Clear,160,2014-01-12 07:55:00
2:15 AM,42.6,32.0,66,30.00,10.0,SSE,4.6,-,N/A,,Clear,160,2014-01-12 08:15:00
2:35 AM,41.5,32.4,70,30.00,10.0,SE,3.5,-,N/A,,Clear,130,2014-01-12 08:35:00
2:55 AM,40.3,32.5,74,30.01,10.0,ESE,4.6,-,N/A,,Clear,120,2014-01-12 08:55:00
3:15 AM,40.5,32.4,73,30.00,10.0,ESE,3.5,-,N/A,,Clear,120,2014-01-12 09:15:00
3:35 AM,39.6,32.2,75,30.01,10.0,ESE,3.5,-,N/A,,Clear,110,2014-01-12 09:35:00
3:55 AM,39.2,32.5,77,30.01,10.0,ESE,3.5,-,N/A,,Clear,120,2014-01-12 09:55:00
4:15 AM,37.6,32.4,81,30.00,10.0,ESE,4.6,-,N/A,,Clear,110,2014-01-12 10:15:00
4:35 AM,38.3,32.2,79,30.00,10.0,ESE,3.5,-,N/A,,Clear,120,2014-01-12 10:35:00
4:55 AM,38.8,32.2,77,30.00,10.0,ESE,4.6,-,N/A,,Clear,110,2014-01-12 10:55:00
5:15 AM,37.4,32.0,81,29.99,10.0,SE,5.8,-,N/A,,Clear,140,2014-01-12 11:15:00
5:35 AM,38.1,32.0,79,29.99,10.0,SSE,3.5,-,N/A,,Clear,150,2014-01-12 11:35:00
5:55 AM,38.7,32.0,77,29.98,10.0,SSE,4.6,-,N/A,,Clear,160,2014-01-12 11:55:00
6:15 AM,41.7,32.0,68,29.99,10.0,South,5.8,-,N/A,,Clear,180,2014-01-12 12:15:00
6:35 AM,41.5,32.0,69,29.99,10.0,South,4.6,-,N/A,,Clear,170,2014-01-12 12:35:00
6:55 AM,40.8,31.8,70,29.99,10.0,SSE,3.5,-,N/A,,Clear,160,2014-01-12 12:55:00
7:15 AM,42.4,32.0,67,29.99,10.0,SSE,6.9,-,N/A,,Clear,160,2014-01-12 13:15:00
7:35 AM,43.9,32.0,63,29.99,10.0,SSE,4.6,-,N/A,,Clear,150,2014-01-12 13:35:00
7:55 AM,46.6,32.5,58,29.99,10.0,SSE,5.8,-,N/A,,Clear,160,2014-01-12 13:55:00
8:15 AM,46.6,33.4,60,30.00,10.0,SSE,4.6,-,N/A,,Clear,150,2014-01-12 14:15:00
8:35 AM,46.2,35.2,66,30.00,10.0,SE,3.5,-,N/A,,Clear,140,2014-01-12 14:35:00
8:55 AM,48.0,37.2,66,30.01,10.0,Calm,Calm,-,N/A,,Clear,0,2014-01-12 14:55:00
9:15 AM,54.3,36.7,51,30.01,10.0,South,6.9,-,N/A,,Clear,170,2014-01-12 15:15:00
9:35 AM,57.4,35.8,44,30.00,10.0,South,6.9,-,N/A,,Clear,170,2014-01-12 15:35:00
9:55 AM,60.6,34.9,38,30.01,10.0,SSW,10.4,-,N/A,,Clear,200,2014-01-12 15:55:00
10:15 AM,63.7,33.6,33,30.00,10.0,South,10.4,17.3,N/A,,Clear,190,2014-01-12 16:15:00
10:35 AM,64.4,33.1,31,29.99,10.0,SSW,12.7,21.9,N/A,,Clear,200,2014-01-12 16:35:00
10:55 AM,66.4,32.9,29,29.98,10.0,SSW,12.7,21.9,N/A,,Clear,200,2014-01-12 16:55:00
11:15 AM,67.1,32.0,27,29.97,10.0,South,20.7,31.1,N/A,,Clear,190,2014-01-12 17:15:00
11:35 AM,69.1,32.4,26,29.94,10.0,South,16.1,27.6,N/A,,Clear,190,2014-01-12 17:35:00
11:55 AM,69.8,31.6,24,29.93,10.0,South,15.0,28.8,N/A,,Clear,190,2014-01-12 17:55:00
12:15 PM,70.7,30.9,23,29.91,10.0,SSW,23.0,34.5,N/A,,Clear,200,2014-01-12 18:15:00
12:35 PM,71.6,29.7,21,29.88,10.0,SSW,16.1,40.3,N/A,,Clear,200,2014-01-12 18:35:00
12:55 PM,72.1,29.8,21,29.87,10.0,SSW,20.7,38.0,N/A,,Clear,210,2014-01-12 18:55:00
1:15 PM,72.0,31.1,22,29.85,10.0,SSW,20.7,34.5,N/A,,Clear,210,2014-01-12 19:15:00
1:35 PM,72.9,31.8,22,29.84,10.0,SSW,25.3,34.5,N/A,,Clear,200,2014-01-12 19:35:00
1:55 PM,72.5,31.5,22,29.83,10.0,SSW,21.9,33.4,N/A,,Clear,200,2014-01-12 19:55:00
2:15 PM,72.9,32.0,22,29.83,10.0,SSW,21.9,32.2,N/A,,Clear,200,2014-01-12 20:15:00
2:35 PM,73.0,32.0,22,29.83,10.0,SSW,24.2,35.7,N/A,,Clear,200,2014-01-12 20:35:00
2:55 PM,73.4,31.8,22,29.83,10.0,SSW,21.9,33.4,N/A,,Clear,200,2014-01-12 20:55:00
3:15 PM,73.4,32.0,22,29.82,10.0,SSW,24.2,33.4,N/A,,Clear,210,2014-01-12 21:15:00
3:35 PM,73.4,32.0,22,29.81,10.0,South,23.0,33.4,N/A,,Clear,190,2014-01-12 21:35:00
3:55 PM,71.8,32.2,23,29.80,10.0,South,19.6,33.4,N/A,,Clear,190,2014-01-12 21:55:00
4:15 PM,72.9,32.5,23,29.79,10.0,South,23.0,31.1,N/A,,Clear,190,2014-01-12 22:15:00
4:35 PM,71.8,32.5,24,29.78,10.0,SSW,20.7,34.5,N/A,,Clear,200,2014-01-12 22:35:00
4:55 PM,71.1,32.5,24,29.79,10.0,SSW,17.3,28.8,N/A,,Clear,200,2014-01-12 22:55:00
5:15 PM,70.2,32.0,24,29.79,10.0,SSW,18.4,28.8,N/A,,Clear,200,2014-01-12 23:15:00
5:35 PM,69.1,32.2,25,29.80,10.0,SSW,17.3,27.6,N/A,,Clear,200,2014-01-12 23:35:00
5:55 PM,68.0,32.5,27,29.80,10.0,SSW,13.8,28.8,N/A,,Clear,200,2014-01-12 23:55:00
6:15 PM,67.3,32.9,28,29.80,10.0,South,13.8,28.8,N/A,,Clear,190,2014-01-13 00:15:00
6:35 PM,66.4,32.9,29,29.80,10.0,South,9.2,20.7,N/A,,Clear,190,2014-01-13 00:35:00
6:55 PM,66.2,32.9,29,29.80,10.0,South,13.8,24.2,N/A,,Clear,190,2014-01-13 00:55:00
7:15 PM,66.0,33.8,30,29.79,10.0,South,13.8,21.9,N/A,,Clear,190,2014-01-13 01:15:00
7:35 PM,65.8,35.4,32,29.80,10.0,SSW,15.0,25.3,N/A,,Clear,200,2014-01-13 01:35:00
7:55 PM,65.3,36.7,35,29.79,10.0,South,15.0,20.7,N/A,,Clear,190,2014-01-13 01:55:00
8:15 PM,64.9,37.6,36,29.80,10.0,South,16.1,20.7,N/A,,Clear,190,2014-01-13 02:15:00
8:35 PM,64.4,39.2,40,29.81,10.0,SSW,11.5,-,N/A,,Clear,210,2014-01-13 02:35:00
8:55 PM,63.9,39.7,41,29.80,10.0,South,11.5,17.3,N/A,,Clear,190,2014-01-13 02:55:00
9:15 PM,63.5,40.3,43,29.80,10.0,SSW,11.5,17.3,N/A,,Clear,200,2014-01-13 03:15:00
9:35 PM,63.5,41.0,44,29.78,10.0,South,12.7,21.9,N/A,,Clear,190,2014-01-13 03:35:00
9:55 PM,63.0,41.4,45,29.78,10.0,SSW,13.8,19.6,N/A,,Clear,200,2014-01-13 03:55:00
10:15 PM,62.6,41.4,46,29.77,10.0,SSW,12.7,20.7,N/A,,Clear,200,2014-01-13 04:15:00
10:35 PM,62.6,41.5,46,29.77,10.0,South,12.7,19.6,N/A,,Clear,190,2014-01-13 04:35:00
10:55 PM,61.9,42.3,49,29.77,10.0,SSW,9.2,-,N/A,,Clear,200,2014-01-13 04:55:00
11:15 PM,61.9,43.7,51,29.77,10.0,SSW,13.8,20.7,N/A,,Clear,200,2014-01-13 05:15:00
11:35 PM,61.7,45.0,54,29.77,10.0,SSW,12.7,-,N/A,,Clear,210,2014-01-13 05:35:00
11:55 PM,61.9,47.3,59,29.78,10.0,SSW,13.8,20.7,N/A,,Scattered Clouds,200,2014-01-13 05:55:00